Weather History for Dubrovnik / Cilipi, Croatia

Change the Weather History Date:

Saturday, February 8, 2014

  Actual Average Record
Temperature  
Mean Temperature 50 °F -  
Max Temperature 55 °F - - ()
Min Temperature 45 °F - - ()
Degree Days  
Heating Degree Days 15    
Moisture  
Dew Point 50 °F    
Average Humidity 89    
Maximum Humidity 100    
Minimum Humidity 66    
Precipitation  
Precipitation 0.98 in - - ()
Sea Level Pressure  
Sea Level Pressure 29.95 in    
Wind  
Wind Speed 15 mph ()    
Max Wind Speed 24 mph    
Max Gust Speed 31 mph    
Visibility 6.0 miles    
Events Rain    
T = Trace of Precipitation, MM = Missing Value Source: Averaged Metar Reports

Daily Weather History Graph

Daily Weather History Graph

Search for Another Location

Airport:

Trip Planner

Search our weather history database for the weather conditions in past years. The results will help you decide how hot, cold, wet, or windy it might be!

Date:

Astronomy

Feb. 08, 2014 Rise Set
Actual Time 6:53 AM CET 5:09 PM CET
Civil Twilight 6:23 AM CET 5:38 PM CET
Nautical Twilight 5:50 AM CET 6:12 PM CET
Astronomical Twilight 5:17 AM CET 6:45 PM CET
Moon 11:48 AM CET (2/8) 1:50 AM CET (2/8)
Length of Visible Light 11h 14m
Length of Day
10h 16m
Waxing Gibbous, 66% of the Moon is Illuminated
Feb 8
Waxing Gibbous
Feb 15
Full
Feb 22
Last Quarter
Mar 1
New
Mar 8
First Quarter

Hourly Weather History & Observations

Time (CET) Temp. Dew Point Humidity Pressure Visibility Wind Dir Wind Speed Gust Speed Precip Events Conditions
12:00 AM 51.8 °F 42.8 °F 71% 30.04 in 6.2 mi ESE 12.7 mph - N/A   Mostly Cloudy
12:30 AM 50.0 °F 42.8 °F 76% 30.04 in 6.2 mi East 13.8 mph - N/A   Mostly Cloudy
1:00 AM 52 °F 44 °F 66% 30.05 in 12 mi ESE 17.9 mph - -   Mostly Cloudy
1:00 AM 51.8 °F 44.6 °F 76% 30.04 in 6.2 mi ESE 19.6 mph - N/A   Mostly Cloudy
1:30 AM 51.8 °F 44.6 °F 76% 30.04 in 6.2 mi SE 15.0 mph - N/A   Mostly Cloudy
2:00 AM 51.8 °F 46.4 °F 82% 30.04 in 6.2 mi SE 19.6 mph - N/A   Mostly Cloudy
2:30 AM 51.8 °F 46.4 °F 82% 30.01 in 6.2 mi ESE 19.6 mph - N/A   Scattered Clouds
3:00 AM 51.8 °F 46.4 °F 82% 30.01 in 6.2 mi ESE 18.4 mph - N/A   Scattered Clouds
3:30 AM 53.6 °F 46.4 °F 77% 30.01 in 6.2 mi ESE 19.6 mph - N/A   Scattered Clouds
4:00 AM 53 °F 46 °F 71% 30.02 in 12 mi ESE 17.9 mph - -   Partly Cloudy
4:00 AM 53.6 °F 46.4 °F 77% 30.01 in 6.2 mi ESE 19.6 mph - N/A   Mostly Cloudy
4:30 AM 51.8 °F 46.4 °F 82% 30.01 in 6.2 mi ESE 19.6 mph - N/A   Mostly Cloudy
5:00 AM 51.8 °F 46.4 °F 82% 29.98 in 6.2 mi ESE 21.9 mph - N/A   Mostly Cloudy
5:30 AM 51.8 °F 50.0 °F 94% 29.98 in 6.2 mi SE 16.1 mph - N/A Rain Light Rain
6:00 AM 51.8 °F 50.0 °F 94% 30.01 in 6.2 mi ESE 13.8 mph - N/A Rain Light Rain
6:30 AM 51.8 °F 50.0 °F 94% 29.98 in 6.2 mi ESE 19.6 mph - N/A   Scattered Clouds
7:00 AM 53 °F 49 °F 83% 29.99 in 9 mi ESE 20.1 mph - -   Partly Cloudy
7:00 AM 51.8 °F 50.0 °F 94% 29.98 in 6.2 mi ESE 18.4 mph - N/A   Mostly Cloudy
7:30 AM 51.8 °F 48.2 °F 88% 29.98 in 6.2 mi ESE 20.7 mph - N/A   Mostly Cloudy
8:00 AM 51.8 °F 48.2 °F 88% 29.98 in 6.2 mi ESE 23.0 mph - N/A   Mostly Cloudy
8:30 AM 51.8 °F 48.2 °F 88% 29.98 in 6.2 mi ESE 24.2 mph - N/A   Mostly Cloudy
9:00 AM 51.8 °F 48.2 °F 88% 29.95 in 6.2 mi ESE 19.6 mph - N/A Rain Light Rain
9:30 AM 51.8 °F 48.2 °F 88% 29.98 in 5.0 mi SE 19.6 mph 31.1 mph N/A Rain Rain
10:00 AM 51 °F 49 °F 88% 29.99 in 6 mi ESE 20.1 mph - - Rain Light Rain
10:00 AM 51.8 °F 48.2 °F 88% 29.98 in 6.2 mi ESE 19.6 mph - N/A Rain Light Rain
10:30 AM 50.0 °F 48.2 °F 94% 29.98 in 3.7 mi ESE 20.7 mph - N/A Rain Rain
11:00 AM 50.0 °F 48.2 °F 94% 29.98 in 3.7 mi East 23.0 mph - N/A Rain Rain
11:30 AM 50.0 °F 48.2 °F 94% 29.95 in 3.7 mi ESE 20.7 mph - N/A Rain Rain
12:00 PM 50.0 °F 48.2 °F 94% 29.95 in 3.7 mi ESE 20.7 mph - N/A Rain Rain
12:30 PM 51.8 °F 48.2 °F 88% 29.92 in 6.2 mi ESE 19.6 mph - N/A Rain Light Rain
1:00 PM 51 °F 49 °F 89% 29.93 in 6 mi ESE 15.7 mph - - Rain Rain
1:00 PM 50.0 °F 48.2 °F 94% 29.92 in 6.2 mi ESE 17.3 mph - N/A Rain Rain
1:30 PM 50.0 °F 50.0 °F 100% 29.92 in 6.2 mi East 12.7 mph - N/A Rain Light Rain
2:00 PM 51.8 °F 50.0 °F 94% 29.89 in 6.2 mi ESE 9.2 mph - N/A Rain Light Rain
2:30 PM 53.6 °F 53.6 °F 100% 29.89 in 1.9 mi South 12.7 mph - N/A Rain Rain
3:00 PM 53.6 °F 53.6 °F 100% 29.89 in 1.2 mi South 15.0 mph - N/A Rain Rain
3:30 PM 53.6 °F 53.6 °F 100% 29.89 in 1.9 mi South 11.5 mph - N/A Rain Light Rain
4:00 PM 54 °F 53 °F 94% 29.89 in 6 mi SSE 8.9 mph - - Rain Light Rain
4:00 PM 53.6 °F 53.6 °F 100% 29.89 in 6.2 mi SSE 11.5 mph - N/A Rain Light Rain
4:30 PM 53.6 °F 53.6 °F 100% 29.89 in 6.2 mi SSE 9.2 mph - N/A   Mostly Cloudy
5:00 PM 53.6 °F 51.8 °F 94% 29.89 in 6.2 mi SSE 9.2 mph - N/A   Mostly Cloudy
5:30 PM 55.4 °F 53.6 °F 94% 29.89 in 6.2 mi South 9.2 mph - N/A   Mostly Cloudy
6:00 PM 55.4 °F 53.6 °F 94% 29.89 in 6.2 mi South 9.2 mph - N/A   Mostly Cloudy
6:30 PM 55.4 °F 53.6 °F 94% 29.89 in 6.2 mi SSE 6.9 mph - N/A   Mostly Cloudy
7:00 PM 55 °F 54 °F 93% 29.89 in 6 mi South 8.9 mph - -   Partly Cloudy
7:00 PM 55.4 °F 53.6 °F 94% 29.89 in 6.2 mi South 8.1 mph - N/A   Mostly Cloudy
7:30 PM 55.4 °F 53.6 °F 94% 29.89 in 6.2 mi South 6.9 mph - N/A   Mostly Cloudy
8:00 PM 55.4 °F 53.6 °F 94% 29.89 in 6.2 mi SSE 8.1 mph - N/A   Mostly Cloudy
8:30 PM 55.4 °F 53.6 °F 94% 29.89 in 6.2 mi SSE 8.1 mph - N/A   Mostly Cloudy
9:00 PM 55.4 °F 53.6 °F 94% 29.89 in 5.0 mi SSE 8.1 mph - N/A   Mostly Cloudy
9:30 PM 53.6 °F 53.6 °F 100% 29.89 in 6.2 mi South 5.8 mph - N/A   Mostly Cloudy
10:00 PM 54 °F 52 °F 91% 29.89 in 9 mi ESE 6.7 mph - -   Mostly Cloudy
10:00 PM 53.6 °F 51.8 °F 94% 29.89 in 6.2 mi ESE 6.9 mph - N/A   Mostly Cloudy
10:30 PM 53.6 °F 50.0 °F 88% 29.86 in 6.2 mi East 9.2 mph - N/A   Mostly Cloudy
11:00 PM 53.6 °F 51.8 °F 94% 29.86 in 6.2 mi East 5.8 mph - N/A   Mostly Cloudy
11:30 PM 55.4 °F 53.6 °F 94% 29.86 in 6.2 mi SSE 6.9 mph - N/A   Mostly Cloudy